CW4549 Weather Reports


Display with metric or nautical units.
time (UTC)temp
F
wind
direction
speed
MPH
gust
MPH
rain 1hr
in
rain 24hr
in
rain mn
in
humidity
%
barometer
mb
20260906114516 67 0.0 1.0 0.00 0.00 0.00 100 1009.8
20260906113016 67 0.0 1.0 0.00 0.00 0.00 100 1009.7
20260906111517 68 0.0 2.0 0.00 0.00 0.00 100 1009.6
20260906110016 68 0.0 2.0 0.00 0.00 0.00 100 1009.4
20260906104538 68 0.0 0.0 0.00 0.01 0.00 100 1009.3
20260906103016 69 0.0 1.0 0.00 0.03 0.00 100 1009.1
20260906101516 69 0.0 2.0 0.00 0.06 0.00 100 1009.0
20260906100018 69 0.0 2.0 0.00 0.06 0.00 100 1008.8
20260906094516 69 0.0 3.0 0.00 0.06 0.00 100 1008.7
20260906093017 70 0.0 3.0 0.00 0.06 0.00 100 1008.6
20260906091518 71 0.0 5.0 0.00 0.06 0.00 100 1008.5
20260906090018 71 0.0 3.0 0.00 0.06 0.00 100 1008.3
20260906084516 72 0.0 3.0 0.00 0.06 0.00 100 1008.1
20260906083036 72 0.0 3.0 0.00 0.06 0.00 100 1008.1
20260906081516 72 0.0 5.0 0.00 0.06 0.00 100 1008.2
20260906080016 72 0.0 5.0 0.00 0.06 0.00 100 1008.1
20260906074516 72 0.0 3.0 0.00 0.06 0.00 100 1008.0
20260906073016 73 0.0 1.0 0.00 0.06 0.00 100 1008.0
20260906071536 73 0.0 2.0 0.00 0.06 0.00 100 1008.2
20260906070016 73 0.0 2.0 0.00 0.06 0.00 100 1008.3
20260906064516 73 0.0 1.0 0.00 0.06 0.00 100 1008.1
20260906063016 73 0.0 0.0 0.00 0.06 0.00 100 1008.2
20260906061516 73 0.0 0.0 0.00 0.06 0.00 100 1008.1
20260906060016 72 0.0 0.0 0.00 0.06 0.00 100 1008.3
20260906054516 73 0.0 0.0 0.00 0.06 0.00 100 1008.3
20260906053016 73 0.0 0.0 0.00 0.06 0.00 100 1008.3
20260906051516 72 0.0 0.0 0.00 0.06 0.00 100 1008.2
20260906050016 72 0.0 0.0 0.00 0.06 0.00 100 1008.1
20260906044537 72 0.0 0.0 0.00 0.06 0.00 100 1008.0
20260906043016 72 0.0 0.0 0.00 0.06 0.00 100 1007.5
20260906041516 73 0.0 0.0 0.00 0.06 0.00 100 1007.4
20260906040016 73 0.0 0.0 0.00 0.06 0.00 100 1007.5
20260906034517 73 0.0 0.0 0.00 0.06 0.06 100 1007.5
20260906033017 73 0.0 0.0 0.00 0.06 0.06 99 1007.4
20260906031517 73 0.0 0.0 0.00 0.06 0.06 99 1007.3
20260906030017 74 0.0 0.0 0.00 0.06 0.06 99 1007.4
20260906024517 74 0.0 0.0 0.00 0.06 0.06 99 1007.5
20260906023037 74 0.0 0.0 0.00 0.06 0.06 98 1007.3
20260906021518 74 0.0 0.0 0.00 0.06 0.06 98 1007.2
20260906020016 75 0.0 0.0 0.00 0.06 0.06 97 1007.6
20260906014538 75 0.0 0.0 0.00 0.06 0.06 96 1007.4
20260906013020 75 0.0 0.0 0.00 0.06 0.06 96 1007.4
20260906011517 76 0.0 0.0 0.00 0.06 0.06 94 1006.9
20260906010019 76 0.0 0.0 0.00 0.06 0.06 92 1006.9
20260906004517 77 0.0 2.0 0.00 0.06 0.06 91 1006.9
20260906003017 79 0.0 1.0 0.00 0.06 0.06 87 1007.2
20260906001520 80 0.0 1.0 0.00 0.06 0.06 80 1006.6
20260906000017 81 0.0 2.0 0.00 0.06 0.06 75 1006.1
20260905234517 83 45 1.0 13.0 0.00 0.06 0.06 76 1006.3
20260905233015 85 0.0 0.0 0.00 0.06 0.06 77 1005.9
20260905231517 86 0.0 0.0 0.00 0.06 0.06 75 1006.2
20260905230017 87 0.0 0.0 0.00 0.06 0.06 73 1005.9
20260905224559 88 0.0 0.0 0.00 0.06 0.06 70 1005.9
20260905223019 89 0.0 0.0 0.00 0.06 0.06 64 1005.9
20260905221519 89 0.0 3.0 0.00 0.06 0.06 63 1006.1
20260905220017 90 0.0 1.0 0.00 0.06 0.06 64 1005.8
20260905214518 90 0.0 2.0 0.00 0.06 0.06 63 1005.5
20260905213017 91 0.0 1.0 0.00 0.08 0.06 63 1005.6
20260905211519 91 0.0 6.0 0.00 0.08 0.06 61 1005.8
20260905210015 91 0.0 6.0 0.00 0.08 0.06 58 1005.9
20260905204515 92 0.0 2.0 0.00 0.08 0.06 58 1006.0
20260905203015 91 0.0 3.0 0.00 0.08 0.06 56 1006.2
20260905201517 91 0.0 3.0 0.00 0.08 0.06 58 1006.4
20260905200015 92 0.0 1.0 0.00 0.08 0.06 57 1006.4
20260905194517 92 0.0 3.0 0.00 0.08 0.06 56 1006.9
20260905193017 92 0.0 3.0 0.00 0.08 0.06 51 1006.9
20260905191515 92 0.0 3.0 0.00 0.08 0.06 53 1007.2
20260905190015 93 0.0 7.0 0.00 0.08 0.06 49 1007.4
20260905184516 93 0.0 4.0 0.00 0.08 0.06 51 1007.6
20260905183015 92 0.0 2.0 0.00 0.08 0.06 52 1007.8
20260905181516 91 0.0 3.0 0.00 0.08 0.06 52 1007.9
20260905180017 90 158 1.0 7.0 0.00 0.08 0.06 55 1007.9
20260905174515 90 158 1.0 7.0 0.00 0.08 0.06 54 1007.7
20260905173015 89 180 1.0 8.0 0.00 0.08 0.06 57 1007.7
20260905171517 88 0.0 7.0 0.00 0.08 0.06 58 1007.9
20260905170036 87 180 1.0 8.0 0.00 0.08 0.06 58 1008.1
20260905164539 87 158 1.0 5.0 0.00 0.08 0.06 57 1008.3
20260905163019 86 158 1.0 7.0 0.00 0.08 0.06 59 1008.9
20260905161516 85 158 2.0 7.0 0.00 0.08 0.06 59 1008.7
20260905160016 85 0.0 5.0 0.00 0.08 0.06 62 1008.6
20260905154521 83 0.0 4.0 0.00 0.08 0.06 63 1008.6
20260905153017 82 158 1.0 7.0 0.00 0.08 0.06 65 1008.5
20260905151516 81 158 1.0 7.0 0.00 0.08 0.06 66 1008.8
20260905150036 79 158 2.0 6.0 0.00 0.08 0.06 69 1009.0
20260905144516 78 158 1.0 6.0 0.00 0.08 0.06 71 1008.8
20260905143017 76 135 1.0 7.0 0.00 0.08 0.06 76 1008.6
20260905141516 75 158 1.0 4.0 0.00 0.08 0.06 86 1008.8
20260905140038 73 180 1.0 5.0 0.00 0.08 0.06 93 1009.2
20260905134517 72 158 1.0 6.0 0.00 0.08 0.06 97 1009.6
20260905133016 71 135 1.0 5.0 0.00 0.08 0.06 100 1010.2
20260905131516 71 0.0 3.0 0.00 0.08 0.06 100 1010.5
20260905130016 70 0.0 0.0 0.00 0.08 0.06 100 1010.6
20260905124516 70 0.0 0.0 0.00 0.08 0.06 100 1010.2
20260905123017 69 0.0 0.0 0.00 0.08 0.06 100 1010.1
20260905121536 69 0.0 0.0 0.00 0.08 0.06 100 1009.9
20260905120016 69 0.0 0.0 0.00 0.08 0.06 100 1009.9